Theta_e
319 322 338 339 342 343 345 347 347 338 342 344 343 343 344 347 344 346 349 348 336 333 339 349 349 348 342 345 342 338 338 343 344 339 338 337 337 336 336 335 333 332 331 331 331 332 337 338 340
321 333 335 340 343 345 343 344 337 336 340 342 343 341 341 354 353 350 349 346 334 331 334 344 349 345 346 349 345 343 339 343 345 338 338 336 334 332 331 330 330 331 331 331 331 334 339 341 343
328 331 341 346 349 348 346 335 335 335 341 341 344 342 342 355 351 350 350 343 335 333 332 336 340 345 347 346 344 343 339 343 344 338 337 334 331 328 326 328 329 330 331 331 332 337 338 342 344
330 336 339 344 346 343 344 341 339 338 342 340 342 345 341 348 350 350 349 342 336 334 333 334 332 344 346 345 343 342 338 343 339 336 336 332 328 324 329 333 335 336 336 335 333 332 336 343 344
329 327 341 341 341 339 338 338 337 338 345 344 343 345 342 349 350 350 347 343 341 339 336 332 328 335 342 343 343 342 338 343 335 336 334 331 325 330 336 339 339 337 334 331 331 332 338 343 344
328 326 333 339 342 338 338 337 334 337 341 343 343 343 340 349 349 349 344 343 339 339 337 330 329 337 343 342 343 338 340 342 337 335 333 328 326 336 339 339 336 332 330 331 332 333 340 344 343
328 325 334 340 340 341 340 331 338 341 341 344 341 343 339 349 348 346 344 338 334 331 330 326 327 339 342 341 340 336 341 341 336 333 330 327 332 338 339 337 332 329 328 328 330 335 341 344 342
325 323 330 341 342 341 337 334 330 339 344 342 340 341 336 337 345 345 347 346 344 336 328 327 328 336 339 342 343 340 334 333 333 331 328 327 336 339 337 335 331 326 325 327 332 337 341 340 339
321 322 323 328 341 341 337 332 330 333 342 340 341 338 335 336 344 345 344 345 343 339 332 329 328 330 330 335 340 338 331 331 331 329 327 331 338 336 335 332 328 325 324 327 331 339 341 341 337
320 319 322 324 337 338 336 332 332 339 343 342 339 336 335 338 342 342 340 340 339 338 332 326 325 326 328 330 334 330 330 329 327 327 327 334 336 339 344 331 327 325 329 325 328 333 336 340 338
320 322 323 325 328 335 328 328 332 340 342 342 339 336 335 335 338 339 339 339 339 335 329 326 321 319 323 326 327 328 328 326 325 326 329 335 339 343 348 331 327 325 333 329 331 333 337 337 338
321 320 321 324 327 333 325 326 336 337 338 340 337 336 336 335 332 337 339 339 338 337 332 332 324 320 324 322 323 323 324 324 324 326 330 335 342 345 345 331 327 328 331 336 336 338 337 337 336
320 320 321 324 324 322 325 327 326 334 338 340 338 337 337 335 333 331 334 337 338 336 334 333 330 327 332 328 320 320 321 323 323 328 335 338 342 346 346 333 333 334 328 335 339 338 339 333 335
318 318 318 323 324 324 326 325 326 338 339 339 338 337 336 335 333 332 331 327 334 334 333 332 330 330 331 331 318 318 320 321 325 333 337 339 340 344 346 339 338 329 335 338 338 337 341 332 334
319 320 318 322 323 324 324 325 324 339 339 339 338 337 336 334 333 332 331 328 331 331 332 332 330 330 330 331 322 319 321 324 330 336 339 343 343 347 334 337 337 335 333 337 341 341 338 332 332
319 317 318 319 321 323 323 323 330 339 339 339 338 337 336 334 333 332 331 331 327 329 331 331 329 330 330 330 327 326 332 334 338 341 340 343 345 346 344 342 334 339 338 337 337 340 335 332 332
314 318 318 318 319 321 323 322 324 338 338 338 336 336 335 334 332 331 329 329 328 328 329 329 328 329 330 330 328 331 333 333 337 340 343 343 345 346 347 343 341 339 337 334 337 336 336 334 333
317 318 317 317 318 320 319 322 326 338 337 337 335 335 334 333 331 328 329 328 327 327 329 329 329 329 332 330 329 331 333 332 334 337 341 344 346 347 349 348 349 342 338 334 336 336 335 335 335
316 317 318 317 319 319 318 320 322 329 334 333 337 335 333 332 330 328 328 327 326 326 329 330 330 332 333 331 331 330 333 343 340 344 344 345 346 347 348 347 350 341 339 338 334 331 332 335 335
316 318 318 317 318 320 319 321 318 319 319 319 321 336 335 332 329 326 327 327 326 326 329 330 331 331 334 335 335 337 336 338 342 344 346 347 347 346 348 347 351 345 340 339 336 333 330 332 336
317 318 318 318 318 318 320 319 320 320 319 319 321 325 332 334 333 328 325 326 326 327 328 330 332 332 332 333 335 335 336 338 340 342 344 346 346 347 347 345 349 350 343 342 339 336 333 331 335
320 319 321 322 318 317 320 319 318 319 320 320 327 334 333 333 333 328 326 327 328 328 327 329 331 332 332 332 334 337 336 337 337 340 342 343 345 345 348 347 347 347 347 347 344 340 336 331 333
319 319 321 323 320 319 319 318 317 319 320 328 338 340 340 338 335 334 335 337 333 330 330 329 332 331 333 333 334 337 339 339 339 338 338 340 343 344 344 347 347 349 349 347 347 343 340 337 330
320 321 318 317 316 319 319 319 318 327 329 335 340 340 341 341 340 339 340 340 340 342 343 337 332 334 336 337 336 337 338 338 338 338 341 342 342 342 343 345 347 347 350 349 348 348 345 340 335
318 316 318 321 320 321 322 330 338 336 336 337 340 338 338 339 340 339 338 337 332 332 335 339 339 338 335 337 338 338 338 338 339 339 339 339 340 340 341 343 346 349 349 350 350 348 348 344 338
319 317 318 323 324 324 327 338 341 336 334 332 332 332 330 331 334 335 331 327 325 325 327 326 326 326 329 331 331 338 342 342 342 344 344 340 337 338 339 339 342 345 346 347 347 348 347 344 341
323 321 318 319 322 324 332 340 339 336 334 332 331 329 327 326 325 324 324 324 324 323 323 323 323 323 323 323 323 323 323 324 326 328 330 341 344 341 339 338 338 345 345 346 346 346 344 343 342
322 322 323 320 327 329 328 335 342 338 335 332 329 327 325 324 323 321 321 321 321 321 321 321 321 322 322 322 322 322 321 322 321 321 321 325 332 337 341 341 339 339 343 346 347 346 343 343 342
324 321 324 320 322 325 329 343 338 337 334 332 330 327 324 323 322 320 318 318 318 318 318 317 317 319 318 318 318 321 322 321 321 321 321 321 320 323 332 332 344 342 341 344 344 345 345 343 341
324 326 323 324 327 327 325 332 336 333 331 330 327 320 320 322 321 318 318 317 317 317 317 316 317 318 317 316 317 319 317 317 317 318 320 322 321 321 321 328 330 332 342 344 344 345 345 343 341
Wind_Speed
6 6 6 3 3 4 4 6 3 3 6 4 7 10 8 4 0 3 11 25 36 35 29 24 23 22 22 20 20 20 20 19 19 19 18 18 18 16 15 14 12 11 10 10 11 12 15 14 13
6 8 1 1 4 3 4 5 4 4 11 17 11 6 6 3 4 12 16 27 40 37 32 27 23 22 22 20 19 19 19 19 19 19 18 17 16 14 13 12 11 10 9 9 10 12 14 13 14
6 3 2 4 3 1 4 3 9 4 9 5 5 5 5 4 12 17 17 36 37 34 30 27 24 22 22 21 20 19 19 19 19 19 17 15 14 12 12 11 10 9 9 9 9 11 13 12 14
3 2 2 3 5 6 6 14 13 5 3 8 9 6 5 10 24 19 35 36 35 31 28 25 23 21 21 21 22 20 20 18 18 19 16 14 12 11 11 11 10 10 9 9 9 10 13 13 15
1 2 4 5 7 6 5 8 7 5 4 5 2 3 4 4 20 41 36 36 35 30 26 23 22 21 21 20 20 20 21 18 18 18 15 12 11 11 11 10 10 9 8 8 8 9 14 17 19
3 3 3 3 8 9 7 9 5 3 5 6 8 6 4 27 39 35 33 34 31 31 26 24 22 21 21 21 19 20 21 18 18 17 14 11 10 10 9 9 9 7 6 6 9 10 18 23 23
4 4 5 6 3 7 5 9 12 10 7 4 10 6 8 18 28 37 36 36 32 30 29 26 24 21 20 20 19 19 19 18 18 16 13 11 10 9 9 8 8 6 5 6 10 13 21 28 22
4 3 4 5 5 6 6 4 10 15 3 6 13 7 7 19 30 31 32 35 31 30 29 28 25 23 22 21 19 18 19 19 17 15 13 11 10 9 8 7 6 5 5 6 11 17 21 27 23
3 2 4 6 7 6 4 3 2 4 9 1 5 7 20 33 38 32 25 26 28 27 28 28 26 24 23 23 21 20 20 19 17 15 13 11 10 9 9 8 8 6 7 7 12 16 21 25 22
5 5 9 11 7 7 5 5 9 6 7 6 8 17 27 34 33 31 26 24 26 28 29 27 26 25 24 23 22 21 20 19 18 16 14 12 12 11 9 9 9 8 10 11 13 18 19 21 22
6 8 4 14 15 12 5 6 4 13 1 12 21 22 19 25 27 28 27 36 37 32 28 28 26 25 26 25 24 23 21 20 18 16 14 13 12 10 9 9 9 10 14 16 16 12 18 19 23
5 7 7 15 18 8 8 5 9 8 10 16 23 24 20 17 19 27 27 27 28 33 30 28 27 27 26 25 25 24 23 21 19 17 15 14 12 11 13 11 8 10 14 15 12 8 5 9 22
6 7 6 12 10 7 7 6 5 7 16 19 16 18 20 16 18 29 35 35 36 35 32 31 29 28 27 25 26 25 24 22 20 19 18 17 14 8 16 15 11 11 14 14 11 9 5 10 27
4 7 10 5 3 3 5 6 6 4 21 19 20 19 19 19 21 25 29 30 36 38 37 34 32 29 28 27 27 26 25 23 22 21 20 19 17 16 21 18 13 18 18 14 12 12 6 25 28
5 6 9 3 2 4 3 8 7 16 20 21 20 19 20 20 25 27 33 35 42 42 40 39 35 33 29 29 28 27 25 25 24 23 21 20 19 17 21 14 12 15 20 17 15 15 14 26 30
6 4 5 8 9 7 8 9 5 20 21 21 20 18 18 20 26 32 37 41 41 43 44 41 38 38 32 32 29 28 27 27 27 25 25 24 21 19 21 18 18 17 17 16 21 23 24 25 26
6 2 6 10 5 5 4 10 6 21 23 21 19 19 18 17 18 26 33 42 46 44 44 43 40 41 36 35 31 30 27 29 28 27 27 28 25 22 20 19 16 18 17 17 27 25 22 25 24
5 3 4 5 9 2 5 12 4 26 19 19 22 18 18 18 21 27 33 41 46 43 43 43 40 41 32 36 31 31 26 31 30 30 31 30 31 30 28 21 18 23 22 21 25 25 21 28 26
4 0 4 6 6 3 5 3 2 11 9 10 15 15 19 20 16 24 31 35 38 40 43 45 41 39 35 36 33 31 31 21 31 29 31 35 35 33 31 27 21 28 28 28 26 25 27 30 30
7 6 6 7 7 2 6 5 6 4 6 9 13 21 21 15 10 16 26 31 38 42 44 44 45 43 41 39 37 31 31 29 25 20 23 23 32 40 36 32 28 33 32 30 29 29 25 21 32
5 7 6 8 5 4 2 7 5 8 5 5 8 6 14 19 18 16 17 20 29 32 43 44 45 43 41 42 36 34 32 32 32 29 26 26 24 37 40 36 35 32 36 35 33 31 31 27 29
4 4 2 5 2 3 4 5 6 7 9 9 6 9 3 20 9 9 13 18 27 32 42 39 41 41 41 40 41 39 35 33 40 37 38 34 31 32 40 42 41 40 39 39 39 36 35 31 28
8 2 3 1 3 3 7 3 8 6 8 6 9 16 16 12 11 11 13 19 12 16 20 25 29 36 35 36 35 36 28 23 20 32 35 37 36 35 35 43 44 45 46 45 42 40 42 43 33
5 5 7 5 3 4 6 5 5 7 6 9 15 17 20 21 19 18 26 33 30 23 9 16 19 19 23 26 29 25 25 25 21 24 30 31 32 39 40 39 46 49 50 48 47 44 43 44 44
7 7 4 4 4 5 4 7 4 6 13 11 19 17 17 17 18 17 17 23 27 31 34 33 11 5 14 11 13 17 17 20 19 21 30 35 38 37 43 42 45 51 52 52 51 48 47 46 45
6 8 6 5 3 5 4 5 3 5 15 17 16 15 17 17 16 17 20 22 25 32 34 33 31 31 30 19 16 14 10 15 17 21 30 37 39 41 41 35 41 48 51 54 53 50 50 46 46
2 3 7 6 1 3 1 4 4 4 14 17 17 17 16 17 17 15 20 23 28 29 27 27 24 21 20 16 14 16 15 15 17 19 21 21 27 35 42 45 44 40 43 48 51 52 47 45 47
4 4 3 3 4 3 4 3 6 5 12 14 14 13 9 11 15 12 18 23 28 26 24 24 23 19 18 16 14 15 16 17 18 19 21 21 21 20 25 35 40 42 43 44 48 47 51 46 45
5 4 6 5 4 5 2 4 3 5 9 13 11 9 8 8 10 10 15 21 24 24 23 21 20 17 17 19 20 20 19 20 22 25 26 24 25 24 23 23 26 36 36 40 44 47 49 47 46
3 2 4 5 3 0 4 3 5 6 7 9 13 13 12 14 13 10 16 21 24 24 24 22 19 14 18 22 20 16 21 26 33 31 28 25 28 27 25 22 22 22 25 32 37 40 43 44 44
Wind_Direction
168 126 136 20 34 63 284 256 264 75 63 58 78 85 116 50 153 182 141 164 161 156 156 156 152 147 146 144 142 139 134 131 131 131 125 121 119 117 115 113 111 107 101 95 88 79 74 71 75
141 125 66 44 68 29 277 278 231 107 128 108 92 92 66 78 66 123 119 163 160 157 158 156 154 151 145 146 144 142 141 138 138 138 132 128 123 119 119 118 116 112 106 99 92 83 80 79 80
139 156 113 127 120 169 285 292 336 8 150 109 106 47 88 109 122 139 153 155 158 156 158 156 157 152 146 148 147 149 148 144 145 143 139 132 127 125 122 121 120 117 111 105 98 91 92 93 90
164 121 41 70 280 236 205 277 307 283 53 51 117 63 62 200 152 157 152 157 156 156 157 158 159 154 149 150 152 155 151 147 152 147 143 137 131 125 123 121 117 113 110 106 100 93 102 101 97
50 43 27 345 298 265 255 244 257 262 83 44 353 87 61 77 146 144 151 160 157 155 159 160 162 158 152 151 154 156 152 154 157 151 147 141 132 126 122 116 113 109 105 102 98 99 111 110 108
24 55 65 243 258 292 280 242 189 159 106 129 87 91 62 134 134 146 153 159 157 157 164 165 165 159 153 155 156 158 156 160 159 154 150 143 133 123 117 116 114 112 107 108 107 114 115 113 117
128 124 191 257 298 338 320 350 137 147 162 156 136 107 121 151 145 152 153 154 156 161 164 167 167 159 157 156 159 164 162 164 161 157 155 146 133 127 123 123 118 109 107 110 110 122 120 120 127
140 92 150 248 245 262 248 278 146 141 173 102 138 147 167 169 157 155 157 157 161 165 168 167 165 164 163 162 163 169 169 166 164 164 158 148 141 133 129 121 111 97 104 107 112 123 127 127 135
117 24 253 244 218 232 260 220 12 18 119 284 172 138 149 133 140 137 138 149 162 169 171 169 167 169 170 170 172 173 171 169 169 171 161 155 148 141 134 132 127 122 124 121 122 124 131 137 142
141 164 237 216 204 245 222 183 149 92 105 42 78 116 145 130 139 145 152 157 164 174 174 174 172 172 173 176 177 178 174 174 175 174 166 163 154 155 155 149 140 141 131 134 134 129 131 141 155
194 217 223 267 248 222 261 162 116 123 266 162 150 152 155 154 154 156 167 168 177 173 171 179 176 176 178 181 182 180 178 177 180 178 171 168 170 182 181 168 154 157 141 141 136 130 137 147 171
251 243 223 257 261 193 168 177 139 162 187 157 158 159 156 171 160 171 174 179 174 173 172 173 175 177 179 185 186 182 180 179 185 180 179 182 193 209 204 190 178 184 160 153 161 167 181 164 182
213 272 264 245 253 281 167 195 149 178 140 152 155 164 163 173 181 172 179 182 179 176 177 175 174 176 181 186 186 185 184 183 186 183 180 187 199 184 198 189 188 191 192 178 176 169 182 175 167
274 287 287 238 227 217 192 241 109 159 144 151 161 175 174 175 185 188 178 170 176 179 181 178 180 179 184 187 187 188 185 185 187 188 190 199 204 218 208 220 230 208 203 200 200 199 197 162 161
268 336 329 315 349 294 101 312 170 158 151 158 176 182 181 181 184 192 189 178 180 184 183 181 183 185 189 191 189 188 187 186 188 189 191 205 210 209 198 219 206 208 218 218 212 221 196 168 168
348 52 7 299 354 301 89 280 109 158 154 176 185 189 189 187 191 197 193 188 183 182 183 182 186 190 193 197 196 190 189 188 188 186 191 206 212 210 222 228 209 211 211 224 215 207 184 170 172
7 286 324 320 347 274 137 263 227 176 173 179 182 190 192 198 194 201 196 187 185 185 183 183 187 190 196 200 201 196 199 202 201 201 199 209 210 217 218 212 209 206 205 196 184 189 191 184 178
259 323 295 284 292 277 319 239 248 180 175 177 196 187 193 199 199 196 196 187 183 184 184 184 187 189 197 196 204 203 210 219 221 219 216 209 215 213 214 215 227 212 209 198 190 193 199 195 189
222 312 283 269 264 268 301 299 249 166 181 179 201 197 194 205 191 190 192 182 182 181 183 185 187 189 189 191 202 207 210 211 214 221 221 218 213 216 215 214 223 209 211 221 208 204 207 201 192
241 254 265 278 273 57 329 307 293 250 205 206 181 199 201 191 178 185 181 177 179 183 186 190 192 193 193 196 200 207 216 223 225 221 225 226 223 217 218 216 214 215 217 221 218 217 213 211 198
227 186 223 232 323 326 328 328 330 302 297 273 53 157 182 184 186 185 174 169 173 179 189 194 197 199 202 206 206 211 220 228 231 232 233 231 228 224 220 222 220 220 214 223 223 221 220 213 202
186 214 300 332 27 243 38 270 294 294 306 59 41 55 120 187 167 131 136 145 167 183 195 200 201 201 205 209 209 212 212 214 225 229 231 234 237 235 227 222 220 223 222 226 228 224 226 222 205
229 205 246 206 60 64 322 38 270 348 24 96 80 76 67 75 90 100 93 101 129 189 202 204 204 208 208 213 215 217 221 234 240 238 240 240 242 246 243 231 226 223 224 227 230 227 226 223 216
141 65 39 44 57 6 258 135 338 341 137 119 85 77 80 85 84 82 84 85 80 82 94 228 223 211 214 219 218 222 227 235 241 247 249 247 247 249 249 242 235 232 228 230 233 236 236 232 227
78 60 7 357 15 224 66 68 307 357 67 80 93 81 79 83 86 83 77 74 67 66 65 62 115 197 226 241 247 255 252 257 257 255 254 254 253 253 251 250 243 236 233 233 236 236 239 237 231
182 144 150 190 201 257 6 140 140 97 82 84 78 84 82 82 82 80 81 78 75 72 71 68 65 64 71 68 44 26 4 317 323 309 292 273 266 264 264 264 256 249 244 243 243 240 240 239 236
194 178 180 107 320 74 176 63 51 106 89 84 87 86 82 87 89 91 85 77 70 69 69 69 68 64 57 50 25 10 5 357 354 348 350 329 292 277 270 263 260 257 253 251 243 241 243 238 238
138 171 68 9 127 182 275 181 185 158 111 101 97 91 89 93 95 99 100 96 87 77 67 59 51 46 38 27 19 4 353 347 342 340 336 333 335 335 294 278 270 265 261 254 248 241 246 240 240
352 357 60 116 116 159 156 269 215 150 124 111 108 102 94 70 74 72 68 68 65 60 55 50 38 29 16 4 356 348 348 344 338 332 331 330 329 329 333 332 302 276 264 261 255 250 249 239 239
166 9 118 113 237 97 138 291 358 145 120 93 88 90 79 81 86 75 66 54 42 33 26 21 17 13 355 342 339 342 338 332 326 323 322 321 322 321 321 325 330 328 310 279 262 255 246 237 233